Flag for Antigua and Barbuda Weather past 2 weeks in Saint John's, Antigua and Barbuda

Now
75 °F

Passing clouds.


Feels Like: 75 °F
Forecast: 75 / 81 °F
Wind: 18 mph from Northeast

Location: Vc Bird International Antigua Airport

Current Time: Feb 1, 2015 at 8:53:51 PM

Latest Report: Feb 1, 2015 at 8:00 PM


Visibility: N/A

Pressure: 30.07 "Hg

Humidity: 89%

Dew point: 72 °F

Location of Saint John'sLocation

Historic Weather in Saint John's — Graph

°F

Saint John's temperature yesterday

Maximum temperature yesterday: 81 °F (at 10:00 AM)
Minimum temperature yesterday: 70 °F (at 2:00 AM)
Average temperature yesterday: 75 °F

Past Weeks' High & Low Weather Summary

 TemperatureHumidityPressure
High82 °F (Jan 18, 11:00 AM)94% (Jan 18, 2:00 AM)30.09 "Hg (Jan 18, 2:00 AM)
Low70 °F (Jan 19, 4:00 AM)58% (Jan 29, 11:00 AM)29.92 "Hg (Jan 21, 3:00 PM)
Average77 °F77%30.00 "Hg
* Reported Jan 17 7:00 PM — Feb 1 7:00 PM, Saint John's, Weather by CustomWeather, © 2014

Note: Actual official high and low records may vary slightly from our data, if they occured in-between our weather recording intervals... More about our weather records

Advertising

Saint John's weather history for previous 24 hours

 ConditionsComfort  
Time TempWeatherWind HumidityBarometerVisibility
7:00 PM
Feb 1
73 °FSprinkles. Partly cloudy.17 mph94%30.04 "HgN/A
6:00 PM75 °FRain showers. Broken clouds.15 mph89%30.04 "HgN/A
5:00 PM77 °FScattered clouds.16 mph83%30.04 "HgN/A
4:00 PM81 °FScattered clouds.13 mph74%30.04 "HgN/A
3:00 PM81 °FPartly sunny.10 mph74%30.01 "HgN/A
2:00 PM81 °FScattered clouds.14 mph74%30.04 "HgN/A
1:00 PM81 °FBroken clouds.13 mph79%30.07 "HgN/A
12:00 PM75 °FSprinkles. Partly sunny.12 mph83%30.07 "HgN/A
11:00 AM81 °FScattered clouds.10 mph79%30.09 "HgN/A
10:00 AM81 °FScattered clouds.10 mph74%30.09 "HgN/A
9:00 AM79 °FPassing clouds.9 mph74%30.09 "HgN/A
8:00 AM77 °FPassing clouds.8 mph79%30.07 "HgN/A
7:00 AM75 °FScattered clouds.7 mph83%30.04 "HgN/A
6:00 AM75 °FPassing clouds.8 mph83%30.01 "HgN/A
5:00 AM75 °FPassing clouds.7 mph83%30.01 "HgN/A
4:00 AM75 °FPassing clouds.8 mph78%30.01 "HgN/A
3:00 AM75 °FPassing clouds.6 mph83%30.01 "HgN/A
2:00 AM75 °FPassing clouds.6 mph78%30.01 "HgN/A
1:00 AM75 °FPassing clouds.7 mph83%30.04 "HgN/A
12:00 AM75 °FPassing clouds.6 mph83%30.04 "HgN/A
11:00 PM
Jan 31
75 °FPassing clouds.6 mph83%30.04 "HgN/A
10:00 PM75 °FPassing clouds.6 mph83%30.04 "HgN/A
9:00 PM77 °FPassing clouds.6 mph79%30.01 "HgN/A
8:00 PM75 °FPassing clouds.5 mph83%30.01 "HgN/A
Weather by CustomWeather, © 2014

See weather overviewHow to use our weather pages